Find Satcom K2

NORAD ID: 16276 Int'l Des: 1985-109 Owner: AMC Country: US operational
HEOCIRCULAR

Current View

Loading 3D Globe...

About Satcom K2

Description loading...

Upcoming Passes

Passes for default location (London). Set your location on the main map for personalized predictions.

Altitude History

Loading altitude history...

Two-Line Element Set

1 16276U 85109D 26149.42532917 -.00000291 00000-0 00000+0 0 9992
2 16276 14.7154 352.5375 0008735 284.0193 81.3803 0.99613345125412
Epoch: May 29, 2026 • Age: 20 hours

Current Status

Altitude 35939.4 km
Velocity 3.07 km/s
Sub-Earth Point -12.29°S, 43.19°W
Launch Date Nov 27, 1985
Age 40.5 years
Type other

Technical Details

Classification Payload
Mass 966.00 kg
Dry Mass 850.00 kg
Total Mass 1925.00 kg
Length 2.10 m
Diameter 1.50 m
Span 20.00 m
Shape Box + 2 Pan
Manufacturer RCA
Bus Type AS4000
Phase Status In Orbit
Owner/State AMC/US

Most Searched